EW3763 Weather Reports


Display with metric or nautical units.
time (UTC)temp
F
wind
direction
speed
MPH
gust
MPH
rain 1hr
in
rain 24hr
in
rain mn
in
humidity
%
barometer
mb
20210925014250 73 121 0.0 0.0 0.00 0.00 0.00 63 1018.3
20210925013752 73 121 0.0 0.0 0.00 0.00 0.00 62 1018.3
20210925013246 73 121 0.0 0.0 0.00 0.00 0.00 61 1018.2
20210925012744 73 121 0.0 0.0 0.00 0.00 0.00 61 1018.1
20210925012245 74 121 0.0 0.0 0.00 0.00 0.00 60 1018.0
20210925011745 74 121 0.0 0.0 0.00 0.00 0.00 60 1018.1
20210925011244 74 121 0.0 0.0 0.00 0.00 0.00 59 1018.1
20210925010745 75 121 0.0 0.0 0.00 0.00 0.00 58 1018.0
20210925010246 75 121 0.0 0.0 0.00 0.00 0.00 57 1018.1
20210925005744 75 121 0.0 0.0 0.00 0.00 0.00 56 1018.0
20210925005245 76 121 0.0 0.0 0.00 0.00 0.00 56 1017.9
20210925004739 76 121 0.0 0.0 0.00 0.00 0.00 55 1018.0
20210925004240 76 121 0.0 0.0 0.00 0.00 0.00 54 1018.0
20210925003739 77 121 0.0 0.0 0.00 0.00 0.00 53 1017.9
20210925003236 77 119 0.0 0.0 0.00 0.00 0.00 52 1018.0
20210925002738 77 119 0.0 0.0 0.00 0.00 0.00 52 1017.9
20210925002239 78 119 0.0 0.0 0.00 0.00 0.00 51 1017.8
20210925001737 78 119 0.0 0.0 0.00 0.00 0.00 51 1017.9
20210925001239 78 119 0.0 0.0 0.00 0.00 0.00 49 1018.0
20210925000739 78 119 0.0 0.0 0.00 0.00 0.00 49 1017.9
20210925000237 79 119 0.0 0.0 0.00 0.00 0.00 47 1018.0
20210924235738 79 119 0.0 0.0 0.00 0.00 0.00 47 1017.9
20210924235234 79 118 0.0 0.0 0.00 0.00 0.00 47 1017.9
20210924234733 79 132 0.0 0.0 0.00 0.00 0.00 46 1017.9
20210924234234 80 132 0.0 0.0 0.00 0.00 0.00 46 1017.9
20210924233733 80 132 0.0 0.0 0.00 0.00 0.00 46 1018.0
20210924233231 80 131 0.0 0.0 0.00 0.00 0.00 45 1018.0
20210924232732 80 132 0.0 0.0 0.00 0.00 0.00 44 1018.0
20210924232233 80 128 0.0 0.0 0.00 0.00 0.00 44 1018.0
20210924231728 80 123 0.0 0.0 0.00 0.00 0.00 44 1018.0
20210924231227 81 123 0.0 0.0 0.00 0.00 0.00 43 1018.0
20210924230732 81 59 0.0 0.0 0.00 0.00 0.00 43 1018.0
20210924230228 81 147 0.0 0.0 0.00 0.00 0.00 43 1018.0
20210924225723 81 98 0.0 0.0 0.00 0.00 0.00 44 1018.1
20210924225232 81 111 0.0 0.0 0.00 0.00 0.00 43 1018.0
20210924224725 81 119 0.0 0.0 0.00 0.00 0.00 42 1018.0
20210924224223 81 116 0.0 0.0 0.00 0.00 0.00 42 1017.9
20210924223726 81 115 0.0 0.0 0.00 0.00 0.00 41 1018.1
20210924223226 81 108 0.0 0.0 0.00 0.00 0.00 42 1018.1
20210924222724 81 90 0.0 0.0 0.00 0.00 0.00 42 1018.1
20210924222227 81 284 0.0 0.0 0.00 0.00 0.00 41 1018.1
20210924221722 81 284 0.0 0.0 0.00 0.00 0.00 41 1018.1
20210924221221 81 284 0.0 0.0 0.00 0.00 0.00 40 1018.0
20210924220723 81 148 0.0 0.0 0.00 0.00 0.00 40 1018.0
20210924220221 81 140 0.0 0.0 0.00 0.00 0.00 39 1018.0
20210924215721 81 135 0.0 0.0 0.00 0.00 0.00 41 1018.0
20210924215222 81 43 0.0 0.0 0.00 0.00 0.00 42 1018.0
20210924214715 82 121 0.0 0.0 0.00 0.00 0.00 41 1017.9
20210924214213 82 115 0.0 0.0 0.00 0.00 0.00 41 1018.0
20210924213715 82 104 0.0 0.0 0.00 0.00 0.00 39 1018.0
20210924213213 82 153 0.0 0.0 0.00 0.00 0.00 40 1018.0
20210924212713 82 137 0.0 0.0 0.00 0.00 0.00 37 1018.1
20210924212214 82 143 0.0 0.0 0.00 0.00 0.00 41 1018.1
20210924211710 82 178 0.0 0.0 0.00 0.00 0.00 42 1018.1
20210924211210 83 158 0.0 0.0 0.00 0.00 0.00 41 1018.1
20210924210708 83 130 0.0 0.0 0.00 0.00 0.00 42 1018.2
20210924210204 83 123 0.0 0.0 0.00 0.00 0.00 40 1018.3
20210924205705 83 165 0.0 0.0 0.00 0.00 0.00 40 1018.2
20210924205159 83 164 0.0 0.0 0.00 0.00 0.00 39 1018.3
20210924204658 83 59 1.0 4.0 0.00 0.00 0.00 40 1018.3
20210924204157 83 19 1.0 5.0 0.00 0.00 0.00 40 1018.4
20210924203658 83 101 1.0 5.0 0.00 0.00 0.00 38 1018.4
20210924203157 84 136 1.0 4.0 0.00 0.00 0.00 39 1018.3
20210924202657 84 105 1.0 6.0 0.00 0.00 0.00 40 1018.4
20210924202156 84 142 1.0 6.0 0.00 0.00 0.00 41 1018.3
20210924201653 84 150 1.0 4.0 0.00 0.00 0.00 42 1018.4
20210924201151 84 155 1.0 8.0 0.00 0.00 0.00 39 1018.5
20210924200651 84 186 2.0 8.0 0.00 0.00 0.00 41 1018.5
20210924200152 84 123 2.0 7.0 0.00 0.00 0.00 42 1018.5
20210924195651 84 140 1.0 7.0 0.00 0.00 0.00 42 1018.6
20210924195150 84 186 0.0 6.0 0.00 0.00 0.00 43 1018.6
20210924194650 83 172 1.0 4.0 0.00 0.00 0.00 44 1018.6
20210924194148 83 167 1.0 4.0 0.00 0.00 0.00 42 1018.6
20210924193649 83 351 1.0 6.0 0.00 0.00 0.00 45 1018.7
20210924193148 82 109 1.0 6.0 0.00 0.00 0.00 45 1018.8
20210924192645 82 154 0.0 5.0 0.00 0.00 0.00 43 1018.9
20210924192144 81 318 0.0 3.0 0.00 0.00 0.00 47 1019.0
20210924191638 81 180 1.0 6.0 0.00 0.00 0.00 47 1019.1
20210924191137 81 117 1.0 6.0 0.00 0.00 0.00 45 1019.2
20210924190635 81 89 1.0 7.0 0.00 0.00 0.00 47 1019.3
20210924190130 81 98 1.0 7.0 0.00 0.00 0.00 47 1019.3
20210924185635 80 181 1.0 6.0 0.00 0.00 0.00 47 1019.4
20210924185132 80 169 2.0 7.0 0.00 0.00 0.00 46 1019.4
20210924184632 80 139 3.0 8.0 0.00 0.00 0.00 46 1019.5
20210924184129 80 85 1.0 8.0 0.00 0.00 0.00 47 1019.6
20210924183629 80 98 1.0 4.0 0.00 0.00 0.00 47 1019.6
20210924183132 80 163 1.0 5.0 0.00 0.00 0.00 47 1019.7
20210924182621 80 143 1.0 6.0 0.00 0.00 0.00 48 1019.8
20210924182119 80 143 1.0 6.0 0.00 0.00 0.00 48 1019.9
20210924181619 80 90 2.0 9.0 0.00 0.00 0.00 46 1019.9
20210924181118 80 98 2.0 9.0 0.00 0.00 0.00 46 1020.1
20210924180619 80 99 2.0 9.0 0.00 0.00 0.00 46 1020.2
20210924180116 80 90 2.0 7.0 0.00 0.00 0.00 47 1020.3
20210924175615 81 192 1.0 4.0 0.00 0.00 0.00 48 1020.3
20210924175115 81 207 2.0 7.0 0.00 0.00 0.00 46 1020.4
20210924174615 81 17 3.0 10.0 0.00 0.00 0.00 44 1020.5
20210924174115 82 105 3.0 10.0 0.00 0.00 0.00 44 1020.6
20210924173607 82 94 2.0 9.0 0.00 0.00 0.00 43 1020.6
20210924173107 83 140 1.0 5.0 0.00 0.00 0.00 43 1020.6
20210924172608 83 21 1.0 5.0 0.00 0.00 0.00 44 1020.6
20210924172107 83 161 1.0 6.0 0.00 0.00 0.00 45 1020.7
20210924171609 83 170 1.0 6.0 0.00 0.00 0.00 45 1020.7
20210924171108 83 163 2.0 5.0 0.00 0.00 0.00 46 1020.8
20210924170608 83 101 2.0 7.0 0.00 0.00 0.00 46 1020.9
20210924170108 83 121 1.0 7.0 0.00 0.00 0.00 49 1020.9
20210924165609 82 170 1.0 6.0 0.00 0.00 0.00 54 1021.0
20210924165101 81 126 1.0 5.0 0.00 0.00 0.00 56 1021.1
20210924164603 80 83 1.0 5.0 0.00 0.00 0.00 57 1021.1
20210924164102 79 126 1.0 3.0 0.00 0.00 0.00 62 1021.2
20210924163602 78 124 2.0 5.0 0.00 0.00 0.00 61 1021.2
20210924163102 77 40 2.0 7.0 0.00 0.00 0.00 63 1021.3
20210924162603 75 126 1.0 7.0 0.00 0.00 0.00 65 1021.4
20210924162102 74 115 1.0 5.0 0.00 0.00 0.00 68 1021.3
20210924161600 74 40 1.0 5.0 0.00 0.00 0.00 68 1021.2
20210924161101 73 162 1.0 5.0 0.00 0.00 0.00 68 1021.2
20210924160557 73 24 1.0 4.0 0.00 0.00 0.00 71 1021.2
20210924160058 72 105 1.0 5.0 0.00 0.00 0.00 72 1021.2
20210924155558 72 37 2.0 5.0 0.00 0.00 0.00 72 1021.2
20210924155058 71 42 2.0 5.0 0.00 0.00 0.00 73 1021.2
20210924154556 71 5 1.0 6.0 0.00 0.00 0.00 75 1021.2
20210924154054 70 349 1.0 6.0 0.00 0.00 0.00 78 1021.1
20210924153556 70 46 1.0 4.0 0.00 0.00 0.00 79 1021.1
20210924153053 69 34 0.0 3.0 0.00 0.00 0.00 81 1021.1
20210924152558 68 45 0.0 0.0 0.00 0.00 0.00 83 1021.0
20210924152052 67 132 0.0 0.0 0.00 0.00 0.00 85 1021.1
20210924151552 67 30 0.0 0.0 0.00 0.00 0.00 86 1021.1
20210924151053 66 112 0.0 4.0 0.00 0.00 0.00 86 1021.1
20210924150550 66 143 0.0 4.0 0.00 0.00 0.00 87 1021.1
20210924150052 65 31 0.0 3.0 0.00 0.00 0.00 88 1021.1
20210924145550 65 127 0.0 0.0 0.00 0.00 0.00 90 1021.1
20210924145051 64 83 0.0 0.0 0.00 0.00 0.00 90 1021.1
20210924144550 64 95 0.0 0.0 0.00 0.00 0.00 91 1020.9
20210924144050 64 105 0.0 0.0 0.00 0.00 0.00 91 1020.8
20210924143546 63 331 0.0 0.0 0.00 0.00 0.00 92 1020.8
20210924143046 63 40 0.0 0.0 0.00 0.00 0.00 92 1020.8
20210924142545 62 42 0.0 0.0 0.00 0.00 0.00 93 1020.8
20210924142046 62 24 0.0 0.0 0.00 0.00 0.00 92 1020.7
20210924141545 62 30 0.0 0.0 0.00 0.00 0.00 93 1020.8
20210924141045 62 42 0.0 0.0 0.00 0.00 0.00 92 1020.7
20210924140545 61 42 0.0 0.0 0.00 0.00 0.00 92 1020.8
20210924140045 61 42 0.0 0.0 0.00 0.00 0.00 92 1020.7
20210924135546 61 42 0.0 2.0 0.00 0.00 0.00 92 1020.7
20210924135039 60 42 0.0 2.0 0.00 0.00 0.00 92 1020.6
20210924134541 60 122 0.0 0.0 0.00 0.00 0.00 92 1020.6
20210924134040 60 122 0.0 0.0 0.00 0.00 0.00 92 1020.7
20210924133540 60 125 0.0 0.0 0.00 0.00 0.00 92 1020.6
20210924133038 60 125 0.0 0.0 0.00 0.00 0.00 92 1020.6
20210924132539 60 120 0.0 1.0 0.00 0.00 0.00 92 1020.7
20210924132040 60 100 0.0 1.0 0.00 0.00 0.00 92 1020.7
20210924131540 60 103 0.0 1.0 0.00 0.00 0.00 92 1020.8
20210924131042 60 102 0.0 0.0 0.00 0.00 0.00 92 1020.7
20210924130540 60 102 0.0 0.0 0.00 0.00 0.00 92 1020.7
20210924130039 60 102 0.0 0.0 0.00 0.00 0.00 92 1020.7
20210924125540 60 102 0.0 0.0 0.00 0.00 0.00 92 1020.6
20210924125039 60 103 0.0 0.0 0.00 0.00 0.00 92 1020.6
20210924124543 59 102 0.0 1.0 0.00 0.00 0.00 92 1020.5
20210924124040 59 103 0.0 1.0 0.00 0.00 0.00 91 1020.5
20210924123538 59 102 0.0 1.0 0.00 0.00 0.00 91 1020.5
20210924123039 59 102 0.0 1.0 0.00 0.00 0.00 91 1020.4
20210924122539 59 102 0.0 1.0 0.00 0.00 0.00 91 1020.4
20210924122041 59 102 0.0 0.0 0.00 0.00 0.00 91 1020.3
20210924121540 59 103 0.0 0.0 0.00 0.00 0.00 91 1020.2
20210924121039 60 103 0.0 0.0 0.00 0.00 0.00 91 1020.2
20210924120541 60 102 0.0 0.0 0.00 0.00 0.00 91 1020.0
20210924120039 60 103 0.0 0.0 0.00 0.00 0.00 90 1020.0
20210924115539 60 102 0.0 0.0 0.00 0.00 0.00 90 1020.0
20210924115040 60 103 0.0 0.0 0.00 0.00 0.00 90 1019.9
20210924114541 60 103 0.0 0.0 0.00 0.00 0.00 90 1019.9
20210924114040 60 103 0.0 0.0 0.00 0.00 0.00 90 1019.8
20210924113541 60 102 0.0 0.0 0.00 0.00 0.00 90 1019.8
20210924113039 60 102 0.0 0.0 0.00 0.00 0.00 90 1019.8
20210924112540 60 102 0.0 0.0 0.00 0.00 0.00 90 1019.7
20210924112039 60 103 0.0 0.0 0.00 0.00 0.00 89 1019.6
20210924111541 60 102 0.0 0.0 0.00 0.00 0.00 89 1019.6
20210924111041 60 102 0.0 0.0 0.00 0.00 0.00 89 1019.6
20210924110541 60 102 0.0 0.0 0.00 0.00 0.00 89 1019.6
20210924110040 60 102 0.0 0.0 0.00 0.00 0.00 89 1019.6
20210924105539 60 103 0.0 0.0 0.00 0.00 0.00 89 1019.5
20210924105038 60 103 0.0 0.0 0.00 0.00 0.00 89 1019.4
20210924104538 60 103 0.0 0.0 0.00 0.00 0.00 89 1019.3
20210924104042 60 103 0.0 0.0 0.00 0.00 0.00 88 1019.2
20210924103539 60 103 0.0 0.0 0.00 0.00 0.00 88 1019.2
20210924103037 60 103 0.0 0.0 0.00 0.00 0.00 88 1019.2
20210924102539 60 103 0.0 0.0 0.00 0.00 0.00 88 1019.2
20210924102037 60 102 0.0 0.0 0.00 0.00 0.00 88 1019.2
20210924101539 60 102 0.0 0.0 0.00 0.00 0.00 88 1019.2
20210924101032 61 102 0.0 0.0 0.00 0.00 0.00 88 1019.2
20210924100529 61 103 0.0 0.0 0.00 0.00 0.00 88 1019.2
20210924100028 61 102 0.0 0.0 0.00 0.00 0.00 88 1019.1
20210924095527 61 103 0.0 0.0 0.00 0.00 0.00 87 1019.1
20210924095028 61 103 0.0 0.0 0.00 0.00 0.00 87 1019.0
20210924094525 61 103 0.0 0.0 0.00 0.00 0.00 87 1019.0
20210924094024 61 102 0.0 0.0 0.00 0.00 0.00 87 1019.0
20210924093524 61 102 0.0 0.0 0.00 0.00 0.00 87 1019.0
20210924093022 61 103 0.0 0.0 0.00 0.00 0.00 87 1019.0
20210924083959 62 103 0.0 0.0 0.00 0.00 0.00 86 1018.9
20210924083456 62 102 0.0 0.0 0.00 0.00 0.00 85 1019.0
20210924082952 62 102 0.0 0.0 0.00 0.00 0.00 85 1018.9
20210924082452 62 103 0.0 0.0 0.00 0.00 0.00 85 1018.9
20210924081952 62 102 0.0 0.0 0.00 0.00 0.00 85 1018.9
20210924081450 63 103 0.0 0.0 0.00 0.00 0.00 85 1018.9
20210924080949 63 102 0.0 0.0 0.00 0.00 0.00 85 1019.0
20210924080444 63 103 0.0 0.0 0.00 0.00 0.00 84 1019.0
20210924075943 63 102 0.0 0.0 0.00 0.00 0.00 84 1019.0
20210924075442 63 102 0.0 0.0 0.00 0.00 0.00 84 1019.0
20210924074942 63 102 0.0 0.0 0.00 0.00 0.00 84 1019.0
20210924074441 63 102 0.0 0.0 0.00 0.00 0.00 84 1019.0
20210924073940 63 102 0.0 0.0 0.00 0.00 0.00 84 1019.0
20210924073440 63 103 0.0 0.0 0.00 0.00 0.00 84 1019.0
20210924072941 63 103 0.0 0.0 0.00 0.00 0.00 83 1019.0
20210924072438 63 102 0.0 0.0 0.00 0.00 0.00 83 1018.9
20210924071933 64 102 0.0 0.0 0.00 0.00 0.00 83 1019.0
20210924071434 64 103 0.0 0.0 0.00 0.00 0.00 83 1018.9
20210924070934 64 103 0.0 0.0 0.00 0.00 0.00 83 1018.9
20210924070431 64 103 0.0 0.0 0.00 0.00 0.00 82 1018.9
20210924065928 64 103 0.0 0.0 0.00 0.00 0.00 82 1018.8
20210924065428 64 103 0.0 0.0 0.00 0.00 0.00 82 1018.8
20210924064933 64 102 0.0 0.0 0.00 0.00 0.00 82 1018.8
20210924064431 64 103 0.0 0.0 0.00 0.00 0.00 81 1018.9
20210924063928 64 103 0.0 0.0 0.00 0.00 0.00 81 1018.9
20210924063424 64 102 0.0 0.0 0.00 0.00 0.00 81 1018.9
20210924062921 64 103 0.0 0.0 0.00 0.00 0.00 80 1018.9
20210924062421 65 103 0.0 0.0 0.00 0.00 0.00 80 1018.9
20210924061919 65 102 0.0 0.0 0.00 0.00 0.00 80 1018.9
20210924061421 65 103 0.0 0.0 0.00 0.00 0.00 80 1018.8
20210924060918 65 102 0.0 0.0 0.00 0.00 0.00 80 1018.8
20210924060419 65 103 0.0 0.0 0.00 0.00 0.00 79 1018.8
20210924055918 65 103 0.0 0.0 0.00 0.00 0.00 79 1018.7
20210924055420 65 102 0.0 0.0 0.00 0.00 0.00 79 1018.8
20210924054914 65 102 0.0 0.0 0.00 0.00 0.00 78 1018.7
20210924054414 65 102 0.0 0.0 0.00 0.00 0.00 78 1018.7
20210924053915 66 103 0.0 0.0 0.00 0.00 0.00 78 1018.8
20210924053414 66 103 0.0 0.0 0.00 0.00 0.00 78 1018.8
20210924052912 66 102 0.0 0.0 0.00 0.00 0.00 78 1018.7
20210924052412 66 102 0.0 0.0 0.00 0.00 0.00 77 1018.7
20210924051912 66 103 0.0 0.0 0.00 0.00 0.00 77 1018.8
20210924051412 66 103 0.0 0.0 0.00 0.00 0.00 77 1018.7
20210924050913 66 103 0.0 0.0 0.00 0.00 0.00 77 1018.7
20210924050411 66 102 0.0 0.0 0.00 0.00 0.00 76 1018.7
20210924045909 67 103 0.0 0.0 0.00 0.00 0.00 76 1018.7
20210924045410 67 103 0.0 0.0 0.00 0.00 0.00 76 1018.7
20210924044907 67 103 0.0 0.0 0.00 0.00 0.00 75 1018.7
20210924044407 67 102 0.0 0.0 0.00 0.00 0.00 75 1018.7
20210924043906 67 103 0.0 0.0 0.00 0.00 0.00 75 1018.7
20210924043407 67 102 0.0 1.0 0.00 0.00 0.00 74 1018.7
20210924042909 67 102 0.0 1.0 0.00 0.00 0.00 75 1018.7
20210924042410 67 102 0.0 0.0 0.00 0.00 0.00 75 1018.7
20210924041906 67 102 0.0 0.0 0.00 0.00 0.00 74 1018.7
20210924041409 67 102 0.0 0.0 0.00 0.00 0.00 74 1018.7
20210924040906 67 102 0.0 0.0 0.00 0.00 0.00 73 1018.7
20210924040410 67 102 0.0 0.0 0.00 0.00 0.00 73 1018.7
20210924035908 68 102 0.0 0.0 0.00 0.00 0.00 73 1018.7
20210924035404 68 102 0.0 1.0 0.00 0.00 0.00 72 1018.7
20210924034905 68 102 0.0 1.0 0.00 0.00 0.00 72 1018.8
20210924034404 68 102 0.0 0.0 0.00 0.00 0.00 71 1018.7
20210924033904 68 102 0.0 0.0 0.00 0.00 0.00 71 1018.7
20210924033400 68 102 0.0 0.0 0.00 0.00 0.00 71 1018.7
20210924032859 68 102 0.0 0.0 0.00 0.00 0.00 71 1018.7
20210924032401 69 102 0.0 0.0 0.00 0.00 0.00 70 1018.7
20210924031858 69 102 0.0 0.0 0.00 0.00 0.00 69 1018.7
20210924031359 69 102 0.0 0.0 0.00 0.00 0.00 69 1018.7
20210924030900 69 102 0.0 0.0 0.00 0.00 0.00 69 1018.7
20210924030401 69 102 0.0 0.0 0.00 0.00 0.00 69 1018.6
20210924025859 69 102 0.0 0.0 0.00 0.00 0.00 68 1018.5
20210924025401 69 102 0.0 0.0 0.00 0.00 0.00 67 1018.5
20210924024900 70 102 0.0 0.0 0.00 0.00 0.00 67 1018.6
20210924024357 70 102 0.0 0.0 0.00 0.00 0.00 67 1018.5
20210924023858 70 102 0.0 0.0 0.00 0.00 0.00 67 1018.5
20210924023355 70 102 0.0 0.0 0.00 0.00 0.00 66 1018.5
20210924022853 70 102 0.0 0.0 0.00 0.00 0.00 66 1018.5
20210924022354 70 102 0.0 0.0 0.00 0.00 0.00 65 1018.5
20210924021854 71 102 0.0 0.0 0.00 0.00 0.00 65 1018.4
20210924021352 71 102 0.0 0.0 0.00 0.00 0.00 64 1018.3
20210924020853 71 102 0.0 0.0 0.00 0.00 0.00 63 1018.3
20210924020355 71 102 0.0 0.0 0.00 0.00 0.00 62 1018.2
20210924015849 71 102 0.0 0.0 0.00 0.00 0.00 62 1018.2
20210924015346 72 102 0.0 0.0 0.00 0.00 0.00 62 1018.1
20210924014842 72 102 0.0 0.0 0.00 0.00 0.00 61 1018.1
20210924014340 72 102 0.0 0.0 0.00 0.00 0.00 61 1018.1